Sheldon, IA

8:08 PM CDT on March 27, 2017 (GMT -0500)
Sheldon Municipal

Weather History for KSHL - September, 2013

Change the Weather History Date:

Friday, September 27, 2013

  Actual Average Record
Temperature  
Mean Temperature 75 °F -  
Max Temperature 84 °F 71 °F 92 °F (1956)
Min Temperature 66 °F 44 °F 28 °F (2002)
Cooling Degree Days 10    
Growing Degree Days 25 (Base 50)    
Moisture  
Dew Point 62 °F    
Average Humidity 66    
Maximum Humidity 100    
Minimum Humidity 45    
Precipitation  
Precipitation 0.09 in - - ()
Sea Level Pressure  
Sea Level Pressure 29.78 in    
Wind  
Wind Speed 15 mph (SSE)    
Max Wind Speed 24 mph    
Max Gust Speed 32 mph    
Visibility 10 miles    
Events Rain    
Averages and records for this station are not official NWS values.
T = Trace of Precipitation, MM = Missing Value Source: NWS Daily Summary

Daily Weather History Graph

Daily Weather History Graph

Search for Another Location

Airport or City:

Trip Planner

Search our weather history database for the weather conditions in past years. The results will help you decide how hot, cold, wet, or windy it might be!

Date:

Astronomy

Sep. 27, 2013 Rise Set
Actual Time 7:16 AM CDT 7:11 PM CDT
Civil Twilight 6:48 AM CDT 7:39 PM CDT
Nautical Twilight 6:14 AM CDT 8:12 PM CDT
Astronomical Twilight 5:41 AM CDT 8:46 PM CDT
Moon 12:04 AM CDT (9/27) 2:58 PM CDT (9/27)
Length of Visible Light 12h 51m
Length of Day
11h 54m
Last Quarter, 45% of the Moon is Illuminated
Sep 27
Last Quarter
Oct 4
New
Oct 11
First Quarter
Oct 18
Full
Oct 26
Last Quarter

Hourly Weather History & Observations

Time (CDT) Temp. Heat Index Dew Point Humidity Pressure Visibility Wind Dir Wind Speed Gust Speed Precip Events Conditions
12:15 AM 71.6 °F - 59.0 °F 64% 29.82 in 10.0 mi SSE 15.0 mph 21.9 mph N/A   Partly Cloudy
12:35 AM 69.8 °F - 59.0 °F 68% 29.82 in 10.0 mi SSE 12.7 mph 23.0 mph N/A   Clear
12:55 AM 69.8 °F - 59.0 °F 68% 29.82 in 10.0 mi SSE 15.0 mph - N/A   Clear
1:15 AM 69.8 °F - 59.0 °F 68% 29.82 in 10.0 mi SSE 13.8 mph 20.7 mph N/A   Clear
1:35 AM 69.8 °F - 59.0 °F 68% 29.81 in 10.0 mi SSE 13.8 mph 24.2 mph N/A   Partly Cloudy
1:55 AM 69.8 °F - 60.8 °F 73% 29.82 in 10.0 mi SSE 11.5 mph 24.2 mph N/A   Clear
2:15 AM 69.8 °F - 60.8 °F 73% 29.82 in 10.0 mi SSE 11.5 mph 23.0 mph N/A   Clear
2:35 AM 69.8 °F - 60.8 °F 73% 29.81 in 10.0 mi SSE 15.0 mph 24.2 mph N/A   Clear
2:55 AM 69.8 °F - 60.8 °F 73% 29.81 in 10.0 mi SE 16.1 mph 25.3 mph N/A   Clear
3:15 AM 69.8 °F - 60.8 °F 73% 29.80 in 10.0 mi SSE 16.1 mph 25.3 mph N/A   Clear
3:35 AM 69.8 °F - 60.8 °F 73% 29.80 in 10.0 mi SSE 16.1 mph 21.9 mph N/A   Clear
3:55 AM 69.8 °F - 60.8 °F 73% 29.79 in 10.0 mi SE 16.1 mph 23.0 mph N/A   Clear
4:15 AM 69.8 °F - 60.8 °F 73% 29.79 in 10.0 mi SSE 18.4 mph 26.5 mph N/A   Scattered Clouds
4:35 AM 68.0 °F - 64.4 °F 88% 29.81 in 4.0 mi South 9.2 mph 18.4 mph N/A Rain Light Rain
4:55 AM 66.2 °F - 66.2 °F 100% 29.79 in 4.0 mi SE 11.5 mph 17.3 mph 0.09 in Rain Light Rain
5:15 AM 68.0 °F - 66.2 °F 94% 29.79 in 10.0 mi SE 18.4 mph 25.3 mph N/A   Overcast
5:35 AM 68.0 °F - 64.4 °F 88% 29.78 in 10.0 mi SSE 13.8 mph 25.3 mph N/A   Overcast
5:55 AM 68.0 °F - 64.4 °F 88% 29.78 in 10.0 mi SSE 13.8 mph 20.7 mph N/A   Scattered Clouds
6:15 AM 68.0 °F - 64.4 °F 88% 29.78 in 10.0 mi SSE 16.1 mph 24.2 mph N/A   Clear
6:35 AM 68.0 °F - 64.4 °F 88% 29.78 in 10.0 mi SSE 13.8 mph 23.0 mph N/A   Partly Cloudy
6:55 AM 68.0 °F - 64.4 °F 88% 29.78 in 10.0 mi SE 17.3 mph 25.3 mph N/A   Mostly Cloudy
7:15 AM 68.0 °F - 64.4 °F 88% 29.78 in 10.0 mi SSE 19.6 mph 27.6 mph N/A   Mostly Cloudy
7:35 AM 68.0 °F - 64.4 °F 88% 29.79 in 10.0 mi SSE 17.3 mph 28.8 mph N/A   Mostly Cloudy
7:55 AM 68.0 °F - 64.4 °F 88% 29.79 in 10.0 mi SSE 13.8 mph 23.0 mph N/A   Scattered Clouds
8:15 AM 68.0 °F - 64.4 °F 88% 29.80 in 10.0 mi SSE 15.0 mph 24.2 mph N/A   Mostly Cloudy
8:35 AM 69.8 °F - 64.4 °F 83% 29.79 in 10.0 mi SSE 16.1 mph 26.5 mph N/A   Scattered Clouds
8:55 AM 69.8 °F - 64.4 °F 83% 29.81 in 10.0 mi SSE 13.8 mph 24.2 mph N/A   Partly Cloudy
9:15 AM 69.8 °F - 64.4 °F 83% 29.81 in 10.0 mi SSE 11.5 mph - N/A   Scattered Clouds
9:35 AM 69.8 °F - 64.4 °F 83% 29.82 in 10.0 mi SSE 9.2 mph - N/A   Mostly Cloudy
9:55 AM 69.8 °F - 64.4 °F 83% 29.82 in 10.0 mi SSE 11.5 mph 17.3 mph N/A   Mostly Cloudy
10:15 AM 68.0 °F - 64.4 °F 88% 29.81 in 10.0 mi SSE 12.7 mph - N/A   Scattered Clouds
10:35 AM 69.8 °F - 64.4 °F 83% 29.81 in 10.0 mi SSE 13.8 mph - N/A   Scattered Clouds
10:55 AM 73.4 °F - 64.4 °F 73% 29.81 in 10.0 mi South 15.0 mph 25.3 mph N/A   Partly Cloudy
11:15 AM 73.4 °F - 62.6 °F 69% 29.80 in 10.0 mi SSE 18.4 mph 29.9 mph N/A   Clear
11:35 AM 73.4 °F - 62.6 °F 69% 29.80 in 10.0 mi South 16.1 mph 28.8 mph N/A Rain Light Rain
11:55 AM 73.4 °F - 62.6 °F 69% 29.79 in 10.0 mi South 18.4 mph 29.9 mph N/A   Clear
12:15 PM 77.0 °F - 62.6 °F 61% 29.78 in 10.0 mi South 12.7 mph 21.9 mph N/A   Clear
12:35 PM 77.0 °F - 62.6 °F 61% 29.78 in 10.0 mi SSE 13.8 mph 24.2 mph N/A   Clear
12:55 PM 78.8 °F - 60.8 °F 54% 29.78 in 10.0 mi South 21.9 mph 28.8 mph N/A   Clear
1:15 PM 80.6 °F 81.5 °F 60.8 °F 51% 29.77 in 10.0 mi South 21.9 mph 31.1 mph N/A   Clear
1:35 PM 82.4 °F 82.9 °F 60.8 °F 48% 29.77 in 10.0 mi South 24.2 mph 32.2 mph N/A   Clear
1:55 PM 82.4 °F 82.9 °F 60.8 °F 48% 29.76 in 10.0 mi South 18.4 mph 29.9 mph N/A   Clear
2:15 PM 82.4 °F 82.9 °F 60.8 °F 48% 29.75 in 10.0 mi South 19.6 mph 26.5 mph N/A   Clear
2:35 PM 84.2 °F 84.4 °F 60.8 °F 45% 29.75 in 10.0 mi South 18.4 mph 28.8 mph N/A   Clear
2:55 PM 84.2 °F 84.4 °F 60.8 °F 45% 29.76 in 10.0 mi South 15.0 mph 27.6 mph N/A   Clear
3:15 PM 84.2 °F 84.4 °F 60.8 °F 45% 29.76 in 10.0 mi South 18.4 mph 27.6 mph N/A   Clear
3:35 PM 84.2 °F 84.4 °F 60.8 °F 45% 29.76 in 10.0 mi South 18.4 mph 29.9 mph N/A   Clear
3:55 PM 84.2 °F 84.4 °F 60.8 °F 45% 29.76 in 10.0 mi South 16.1 mph 26.5 mph N/A   Clear
4:15 PM 82.4 °F 82.9 °F 60.8 °F 48% 29.77 in 10.0 mi SSW 13.8 mph 25.3 mph N/A   Clear
4:35 PM 82.4 °F 82.9 °F 60.8 °F 48% 29.77 in 10.0 mi South 8.1 mph 18.4 mph N/A   Clear
4:55 PM 82.4 °F 82.9 °F 60.8 °F 48% 29.77 in 10.0 mi South 8.1 mph 16.1 mph N/A   Clear
5:15 PM 82.4 °F 82.9 °F 60.8 °F 48% 29.77 in 10.0 mi South 9.2 mph 15.0 mph N/A   Clear
5:35 PM 80.6 °F 81.5 °F 60.8 °F 51% 29.77 in 10.0 mi South 8.1 mph - N/A   Clear
5:55 PM 80.6 °F 81.5 °F 60.8 °F 51% 29.77 in 10.0 mi South 10.4 mph - N/A   Clear
6:15 PM 80.6 °F 81.5 °F 60.8 °F 51% 29.77 in 10.0 mi SSE 10.4 mph 16.1 mph N/A   Clear
6:35 PM 80.6 °F 81.1 °F 59.0 °F 48% 29.77 in 10.0 mi SSE 11.5 mph - N/A   Clear
6:55 PM 80.6 °F 80.8 °F 57.2 °F 45% 29.76 in 10.0 mi SSE 12.7 mph 20.7 mph N/A   Clear
7:15 PM 78.8 °F - 57.2 °F 47% 29.76 in 10.0 mi SSE 11.5 mph - N/A   Clear
7:35 PM 77.0 °F - 59.0 °F 54% 29.76 in 10.0 mi SSE 11.5 mph - N/A   Clear
7:55 PM 77.0 °F - 59.0 °F 54% 29.75 in 10.0 mi SSE 11.5 mph 18.4 mph N/A   Partly Cloudy
8:15 PM 75.2 °F - 59.0 °F 57% 29.76 in 10.0 mi SSE 13.8 mph 20.7 mph N/A   Partly Cloudy
8:35 PM 75.2 °F - 59.0 °F 57% 29.77 in 10.0 mi SSE 11.5 mph 18.4 mph N/A   Clear
8:55 PM 75.2 °F - 60.8 °F 61% 29.78 in 10.0 mi SSE 12.7 mph 18.4 mph N/A   Clear
9:15 PM 75.2 °F - 59.0 °F 57% 29.78 in 10.0 mi SSE 13.8 mph 20.7 mph N/A   Clear
9:35 PM 75.2 °F - 59.0 °F 57% 29.78 in 10.0 mi SSE 13.8 mph 21.9 mph N/A   Clear
9:55 PM 75.2 °F - 59.0 °F 57% 29.78 in 10.0 mi SSE 13.8 mph 20.7 mph N/A   Clear
10:15 PM 73.4 °F - 60.8 °F 65% 29.77 in 10.0 mi SSE 12.7 mph 23.0 mph N/A   Clear
10:35 PM 73.4 °F - 60.8 °F 65% 29.76 in 10.0 mi SSE 15.0 mph 20.7 mph N/A   Clear
10:55 PM 73.4 °F - 60.8 °F 65% 29.75 in 10.0 mi SSE 12.7 mph 20.7 mph N/A   Clear
11:15 PM 73.4 °F - 60.8 °F 65% 29.74 in 10.0 mi SSE 15.0 mph 21.9 mph N/A   Clear
11:35 PM 73.4 °F - 60.8 °F 65% 29.72 in 10.0 mi SSE 17.3 mph 25.3 mph N/A   Clear
11:55 PM 73.4 °F - 60.8 °F 65% 29.72 in - SSE 19.6 mph 26.5 mph N/A   Clear